Flag for Costa Rica Weather past 2 weeks in Alajuela, Costa Rica

Now
73 °F

Passing clouds.


Feels Like: 77 °F
Forecast: 68 / 86 °F
Wind: 8 mph from East

Location: Juan Santamaria

Current Time: Mar 5, 2015 at 6:11:51 PM

Latest Report: Mar 5, 2015 at 6:00 PM


Visibility: N/A

Pressure: 29.95 "Hg

Humidity: 57%

Dew point: 57 °F

Location of AlajuelaLocation

Historic Weather in Alajuela — Graph

°F

Alajuela temperature yesterday

Maximum temperature yesterday: 84 °F (at 12:00 PM)
Minimum temperature yesterday: 64 °F (at 2:00 AM)
Average temperature yesterday: 73 °F

Past Weeks' High & Low Weather Summary

 TemperatureHumidityPressure
High88 °F (Feb 25, 1:00 PM)83% (Feb 25, 5:00 PM)30.11 "Hg (Feb 25, 5:00 PM)
Low63 °F (Feb 26, 4:00 AM)20% (Feb 19, 1:00 PM)29.90 "Hg (Feb 26, 3:00 PM)
Average74 °F55%30.00 "Hg
* Reported Feb 18 5:00 PM — Mar 5 5:00 PM, Alajuela, Weather by CustomWeather, © 2015

Note: Actual official high and low records may vary slightly from our data, if they occured in-between our weather recording intervals... More about our weather records

Advertising

Alajuela weather history for previous 24 hours

 ConditionsComfort  
Time TempWeatherWind HumidityBarometerVisibility
5:00 PM
Thu, Mar 5
79 °FPassing clouds.12 mph48%29.93 "HgN/A
4:00 PM82 °FPassing clouds.13 mph40%29.91 "HgN/A
3:00 PM84 °FPassing clouds.14 mph37%29.90 "HgN/A
2:00 PM86 °FPassing clouds.12 mph33%29.92 "HgN/A
1:00 PM86 °FSunny.14 mph35%29.95 "Hg10 mi
12:00 PM84 °FSunny.14 mph35%29.97 "Hg10 mi
11:00 AM84 °FSunny.13 mph35%30.00 "Hg10 mi
10:00 AM81 °FSunny.15 mph37%30.00 "Hg10 mi
8:00 AM77 °FSunny.15 mph39%30.00 "Hg10 mi
7:00 AM70 °FSunny.13 mph53%29.99 "Hg10 mi
6:00 AM66 °FSunny.10 mph60%29.97 "Hg10 mi
5:00 AM66 °FClear.12 mph64%29.94 "Hg10 mi
4:00 AM66 °FClear.12 mph64%29.94 "Hg10 mi
3:00 AM66 °FClear.13 mph68%29.93 "Hg10 mi
2:00 AM66 °FClear.14 mph68%29.93 "Hg10 mi
1:00 AM66 °FClear.14 mph68%29.96 "Hg10 mi
12:00 AM68 °FClear.14 mph64%29.98 "Hg10 mi
11:00 PM
Wed, Mar 4
68 °FClear.14 mph64%30.00 "Hg10 mi
10:00 PM68 °FClear.12 mph64%30.00 "Hg10 mi
9:00 PM70 °FClear.14 mph64%29.99 "Hg10 mi
8:00 PM70 °FPassing clouds.16 mph64%29.97 "HgN/A
7:00 PM70 °FPassing clouds.12 mph60%29.96 "HgN/A
6:00 PM73 °FPassing clouds.12 mph53%29.94 "HgN/A
Weather by CustomWeather, © 2015

See weather overviewHow to use our weather pages